Regional Weather Roundup
Issued by NWS Mt. Holly, NJ

Home | Current Version | Previous Version | Text Only | Print | Product List | Glossary On
Versions: 1 2 3 4 5 6 7 8 9 10 11 12 13 14 15 16 17 18 19 20 21 22 23 24 25 26 27 28 29 30 31 32 33 34 35 36 37 38 39 40 41 42 43 44 45 46 47 48 49 50
000
ASUS41 KPHI 301411
RWRPHI

REGIONAL WEATHER ROUNDUP
NATIONAL WEATHER SERVICE MOUNT HOLLY NJ
1000 AM EDT SUN AUG 30 2015

NOTE:  "FAIR" INDICATES FEW OR NO CLOUDS BELOW 12,000 FEET WITH NO
SIGNIFICANT WEATHER AND/OR OBSTRUCTIONS TO VISIBILITY.

 * = STATION DOES NOT REPORT PRECIPITATION (E.G. RAIN, SNOW, ETC.)
        OR FOG.

NJZ015>026-301500-
SOUTHERN NEW JERSEY

CITY           SKY/WX    TMP DP  RH WIND       PRES   REMARKS
POMONA         NOT AVBL
WILDWOOD*      SUNNY     77  64  65 SW10      30.16R
MILLVILLE      SUNNY     79  64  60 W9        30.15R
WRIGHTSTOWN    SUNNY     78  67  69 W8        30.10S
MOUNT HOLLY    SUNNY     78  65  63 SW8       30.13R
TRENTON        SUNNY     77  65  66 W7        30.12R

$$
NJZ001>014-301500-
NORTHERN NEW JERSEY

CITY           SKY/WX    TMP DP  RH WIND       PRES   REMARKS
SUSSEX         MOSUNNY   73  65  75 SW6       30.11F
ANDOVER*         N/A     73  66  78 VRB3      30.13S
MORRISTOWN     MOSUNNY   81  68  65 SW5       30.11F
NEWARK         MOSUNNY   79  65  62 VRB3      30.11R
TETERBORO      SUNNY     79  63  57 SW3       30.10R
CALDWELL       SUNNY     75  63  66 CALM      30.11S
SOMERVILLE     SUNNY     76  64  66 CALM      30.10S
ALLAIRE*       SUNNY     79  63  57 W9        30.13R
TOMS RIVER*    SUNNY     79  64  61 SW9       30.13S

$$
PAZ043-044-047-054-055-060>062-066>071-301500-
EASTERN PENNSYLVANIA

CITY           SKY/WX    TMP DP  RH WIND       PRES   REMARKS
PHILADELPHIA   PTSUNNY   78  65  63 W10       30.14R
NORTH PHILA    SUNNY     80  63  55 W5        30.14R
BLUE BELL      SUNNY     79  68  69 CALM      30.13R
DOYLESTOWN     SUNNY     74  64  71 VRB5      30.12S
QUAKERTOWN*    SUNNY     75  66  73 W6        30.14S
POTTSTOWN      SUNNY     74  67  78 VRB5      30.14S
LANCASTER      SUNNY     74  65  73 CALM      30.13S
COATESVILLE    SUNNY     73  66  78 CALM      30.15S
READING        SUNNY     76  65  68 CALM      30.12R
ALLENTOWN      SUNNY     75  65  70 SW5       30.12S
MOUNT POCONO   MOSUNNY   74  63  68 W7        30.16S
HAZLETON       SUNNY     73  64  73 W6        30.18S
WILKES BARRE   MOSUNNY   74  63  68 VRB3      30.13S

$$
DEZALL-MDZ008-012-015-019-020-301500-
DELAWARE AND EASTERN MARYLAND

CITY           SKY/WX    TMP DP  RH WIND       PRES   REMARKS
WILMINGTON     SUNNY     77  66  68 SW7       30.14S
DOVER          SUNNY     79  67  67 SW9       30.13R
GEORGETOWN     PTSUNNY   77  67  71 SW5       30.16R
EASTON         MOSUNNY   77  68  73 SW7       30.17S
PATUXENT       CLOUDY    74  64  71 CALM      30.15R
OCEAN CITY     PTSUNNY   78  65  63 W6        30.16R
WALLOPS ISLAND PTSUNNY   80  64  58 W3        30.17R
CAMBRIDGE      PTSUNNY   77  66  69 S5        30.15R
SALISBURY      PTSUNNY   78  69  73 W7        30.15S

$$
PAZ001-021-NYZ056-072-MDZ011-DCZ001-301500-
OTHER NEARBY LOCATIONS

CITY           SKY/WX    TMP DP  RH WIND       PRES   REMARKS
HARRISBURG     PTSUNNY   77  66  68 CALM      30.12S
STATE COLLEGE  SUNNY     72  63  73 CALM      30.15S
WILLIAMSPORT   PTSUNNY   70  61  73 W5        30.12R
BINGHAMTON     CLOUDY    67  60  78 CALM      30.14R
NEW YORK CITY  SUNNY     77  62  59 W6        30.14R
BALTIMORE      PTSUNNY   74  64  71 S3        30.13S
WASHINGTON DC  CLOUDY    74  64  71 S5        30.15R

$$


USA.gov is the U.S. government's official web portal to all federal, state and local government web resources and services.